Location: Auttagershofen
(48.1940°N, 10.0237°E)
Time: 15:48:43
(UTC+00:00)

ATLAS 2AS CENTAUR R/B - Pass Details

Date: 18 January 2026
Orbit: 1050 x 1161 km, 63.7° (Epoch: 10 February)

Event Time Altitude Azimuth Distance (km) Brightness Sun altitude
Exits shadow 05:04:09 25° 314° (NW) 1,995 3.7 -19.4°
Maximum altitude 05:08:22 74° 234° (SW) 1,090 2.6 -18.7°
Drops below altitude 10° 05:15:06 10° 151° (SSE) 2,867 5.5 -17.6°
Sets 05:17:44 0° 149° (SSE) 3,826 6.3 -17.2°
